Location: Bord�res
(43.2000°N, 0.2167°W)
Time: 10:05:44
(UTC+00:00)

OBJECT-B - Pass Details

Date: 03 March 2021
Orbit: 414 x 427 km, 97.0° (Epoch: 11 April)

Event Time Altitude Azimuth Distance (km) Brightness Sun altitude
Exits shadow 19:38:15 21° 13° (NNE) 1,012 2.6 -20.0°
Drops below altitude 10° 19:39:32 10° 2° (N) 1,513 3.7 -20.2°
Sets 19:41:36 0° 355° (N) 2,380 4.8 -20.6°
